Mattoon, IL

6:03 AM CDT on August 17, 2017 (GMT -0500)
Coles County Memorial

Weather History for KMTO - May, 2013

Change the Weather History Date:

Saturday, May 18, 2013

  Actual Average Record
Temperature  
Mean Temperature 70 °F 64 °F  
Max Temperature 78 °F 74 °F 90 °F (1962)
Min Temperature 61 °F 54 °F 33 °F (2002)
Degree Days  
Heating Degree Days 0 4  
Month to date heating degree days 74 94  
Since 1 July heating degree days 5333 5356  
Cooling Degree Days 5 3  
Month to date cooling degree days 40 30  
Year to date cooling degree days 45 44  
Growing Degree Days 20 (Base 50)    
Moisture  
Dew Point 63 °F    
Average Humidity 82    
Maximum Humidity 100    
Minimum Humidity 64    
Precipitation  
Precipitation 0.00 in 0.15 in 1.85 in (1981)
Month to date precipitation 4.30 2.73  
Year to date precipitation 19.34 12.71  
Sea Level Pressure  
Sea Level Pressure 29.99 in    
Wind  
Wind Speed 4 mph (SSE)    
Max Wind Speed 13 mph    
Max Gust Speed 16 mph    
Visibility 7 miles    
Events      
T = Trace of Precipitation, MM = Missing Value Source: NWS Daily Summary

Daily Weather History Graph

Daily Weather History Graph

Search for Another Location

Airport or City:

Trip Planner

Search our weather history database for the weather conditions in past years. The results will help you decide how hot, cold, wet, or windy it might be!

Date:

Astronomy

May. 18, 2013 Rise Set
Actual Time 5:36 AM CDT 8:03 PM CDT
Civil Twilight 5:05 AM CDT 8:33 PM CDT
Nautical Twilight 4:27 AM CDT 9:12 PM CDT
Astronomical Twilight 3:45 AM CDT 9:54 PM CDT
Moon 1:08 PM CDT (5/18) 1:26 AM CDT (5/18)
Length of Visible Light 15h 28m
Length of Day
14h 26m
First Quarter, 55% of the Moon is Illuminated
May 18
First Quarter
May 24
Full
May 31
Last Quarter
Jun 8
New
Jun 16
First Quarter

Hourly Weather History & Observations

Time (CDT) Temp. Dew Point Humidity Pressure Visibility Wind Dir Wind Speed Gust Speed Precip Events Conditions
12:53 AM 63.0 °F 61.0 °F 93% 29.99 in 7.0 mi SSE 3.5 mph - N/A   Clear
1:53 AM 62.1 °F 61.0 °F 96% 29.99 in 4.0 mi Calm Calm - N/A   Clear
2:53 AM 62.1 °F 61.0 °F 96% 29.99 in 4.0 mi Calm Calm - N/A   Scattered Clouds
3:18 AM 62.6 °F 60.8 °F 94% 30.01 in 3.0 mi Calm Calm - N/A   Overcast
3:53 AM 62.1 °F 61.0 °F 96% 29.99 in 3.0 mi Calm Calm - N/A   Overcast
4:08 AM 62.6 °F 60.8 °F 94% 30.00 in 2.5 mi Calm Calm - N/A   Mostly Cloudy
4:53 AM 62.1 °F 61.0 °F 96% 29.99 in 2.0 mi Calm Calm - N/A   Mostly Cloudy
5:24 AM 62.6 °F 62.6 °F 100% 30.01 in 3.0 mi Calm Calm - N/A   Overcast
5:53 AM 63.0 °F 62.1 °F 97% 30.01 in 2.5 mi Calm Calm - N/A   Overcast
6:53 AM 64.0 °F 63.0 °F 96% 30.02 in 2.0 mi Calm Calm - N/A   Overcast
7:17 AM 64.4 °F 62.6 °F 94% 30.03 in 2.5 mi Calm Calm - N/A   Overcast
7:26 AM 64.4 °F 62.6 °F 94% 30.03 in 3.0 mi Calm Calm - N/A   Overcast
7:53 AM 66.0 °F 64.0 °F 93% 30.02 in 5.0 mi ESE 4.6 mph - N/A   Overcast
8:53 AM 69.1 °F 64.0 °F 84% 30.01 in 8.0 mi SE 5.8 mph - N/A   Scattered Clouds
9:53 AM 71.1 °F 64.0 °F 78% 30.02 in 10.0 mi SSE 5.8 mph - N/A   Scattered Clouds
10:53 AM 73.0 °F 64.0 °F 73% 30.01 in 10.0 mi ESE 5.8 mph - N/A   Mostly Cloudy
11:53 AM 73.0 °F 63.0 °F 71% 30.01 in 10.0 mi SE 5.8 mph - N/A   Overcast
12:02 PM 73.4 °F 64.4 °F 73% 30.02 in 10.0 mi ESE 8.1 mph - N/A   Overcast
12:14 PM 75.2 °F 64.4 °F 69% 30.01 in 10.0 mi SE 10.4 mph 16.1 mph N/A   Overcast
12:53 PM 75.0 °F 63.0 °F 66% 30.00 in 10.0 mi SSE 6.9 mph - N/A   Scattered Clouds
1:53 PM 75.0 °F 64.0 °F 69% 29.98 in 10.0 mi SE 10.4 mph - N/A   Mostly Cloudy
2:53 PM 78.1 °F 66.0 °F 66% 29.96 in 10.0 mi South 8.1 mph - N/A   Overcast
3:53 PM 75.9 °F 64.0 °F 67% 29.95 in 10.0 mi SSE 9.2 mph - N/A   Partly Cloudy
5:53 PM 75.0 °F 63.0 °F 66% 29.94 in 10.0 mi SSE 8.1 mph - N/A   Scattered Clouds
6:53 PM 75.0 °F 64.0 °F 69% 29.94 in 10.0 mi South 4.6 mph - N/A   Clear
7:53 PM 73.9 °F 64.0 °F 71% 29.94 in 10.0 mi South 4.6 mph - N/A   Overcast
8:53 PM 72.0 °F 64.9 °F 78% 29.95 in 10.0 mi South 3.5 mph - N/A   Mostly Cloudy
9:53 PM 70.0 °F 64.0 °F 81% 29.94 in 10.0 mi Calm Calm - N/A   Clear
11:53 PM 66.9 °F 64.0 °F 90% 29.91 in 7.0 mi SSE 3.5 mph - N/A   Clear